GW3984 Weather Reports


Display with metric or nautical units.
time (UTC)temp
F
wind
direction
speed
MPH
gust
MPH
rain 1hr
in
rain 24hr
in
rain mn
in
humidity
%
barometer
mb
20260831050021 82 203 4.0 12.0 0.00 0.00 0.00 68 1016.6
20260831045531 83 161 1.0 5.0 0.00 0.00 0.00 69 1015.7
20260831044526 83 82 0.0 3.0 0.00 0.00 0.00 68 1015.7
20260831044516 82 144 1.0 8.0 0.00 0.00 0.00 67 1016.4
20260831043537 83 176 0.0 7.0 0.00 0.00 0.00 67 1015.7
20260831043013 83 182 0.0 8.0 0.00 0.00 0.00 65 1016.4
20260831041511 83 124 2.0 8.0 0.00 0.00 0.00 64 1016.1
20260831040240 84 130 0.0 5.0 0.00 0.00 0.00 64 1015.4
20260831040031 84 98 1.0 8.0 0.00 0.00 0.00 63 1016.1
20260831035246 85 139 1.0 6.0 0.00 0.00 0.00 62 1015.4
20260831034529 84 129 3.0 7.0 0.00 0.00 0.00 61 1016.0
20260831034241 85 118 0.0 5.0 0.00 0.00 0.00 61 1015.3
20260831033229 85 107 1.0 8.0 0.00 0.00 0.00 61 1015.2
20260831033026 85 172 2.0 7.0 0.00 0.00 0.00 60 1016.0
20260831032159 86 139 1.0 8.0 0.00 0.00 0.00 60 1015.1
20260831031532 86 130 4.0 11.0 0.00 0.00 0.00 59 1015.8
20260831031145 86 124 1.0 7.0 0.00 0.00 0.00 60 1015.1
20260831030200 87 134 2.0 7.0 0.00 0.00 0.00 59 1014.9
20260831030019 86 103 2.0 10.0 0.00 0.00 0.00 58 1015.6
20260831025145 87 108 1.0 5.0 0.00 0.00 0.00 59 1014.7
20260831024517 86 139 1.0 4.0 0.00 0.00 0.00 58 1015.3
20260831024138 87 148 1.0 6.0 0.00 0.00 0.00 58 1014.4
20260831023126 87 197 1.0 7.0 0.00 0.00 0.00 58 1014.2
20260831023015 87 136 1.0 8.0 0.00 0.00 0.00 57 1015.1
20260831022122 88 181 1.0 7.0 0.00 0.00 0.00 58 1013.9
20260831021508 87 104 3.0 11.0 0.00 0.00 0.00 57 1014.6
20260831020033 87 125 1.0 8.0 0.00 0.00 0.00 58 1014.4
20260831020018 87 122 1.0 5.0 0.00 0.00 0.00 59 1013.5
20260831015031 88 156 1.0 8.0 0.00 0.00 0.00 58 1013.6
20260831014531 87 91 2.0 8.0 0.00 0.00 0.00 57 1014.3
20260831014042 88 151 2.0 8.0 0.00 0.00 0.00 57 1013.4
20260831013048 89 108 2.0 8.0 0.00 0.00 0.00 56 1013.4
20260831013028 88 144 3.0 10.0 0.00 0.00 0.00 55 1014.2
20260831012015 89 204 1.0 7.0 0.00 0.00 0.00 55 1013.2
20260831011528 89 110 2.0 8.0 0.00 0.00 0.00 54 1014.0
20260831010953 89 101 1.0 6.0 0.00 0.00 0.00 53 1013.3
20260831010033 89 136 1.0 4.0 0.00 0.00 0.00 52 1014.0
20260831010009 90 22 0.0 3.0 0.00 0.00 0.00 52 1013.2
20260831005020 90 129 0.0 3.0 0.00 0.00 0.00 51 1013.0
20260831004521 90 121 1.0 5.0 0.00 0.00 0.00 50 1013.7
20260831004041 90 143 0.0 3.0 0.00 0.00 0.00 50 1012.7
20260831003035 91 194 0.0 3.0 0.00 0.00 0.00 49 1012.7
20260831003016 91 112 1.0 4.0 0.00 0.00 0.00 49 1013.5
20260831002005 91 141 0.0 3.0 0.00 0.00 0.00 49 1012.7
20260831001517 91 134 0.0 4.0 0.00 0.00 0.00 48 1013.5
20260831000944 92 96 0.0 7.0 0.00 0.00 0.00 48 1012.8
20260831000021 92 140 1.0 9.0 0.00 0.00 0.00 46 1013.5
20260830235913 93 146 0.0 7.0 0.00 0.00 0.00 47 1012.8
20260830234925 93 146 0.0 3.0 0.00 0.00 0.00 46 1012.7
20260830234517 93 128 1.0 5.0 0.00 0.00 0.00 46 1013.5
20260830233855 93 68 0.0 4.0 0.00 0.00 0.00 46 1012.8
20260830233005 93 161 1.0 5.0 0.00 0.00 0.00 45 1013.5
20260830232847 93 132 0.0 5.0 0.00 0.00 0.00 46 1012.7
20260830231912 94 146 1.0 6.0 0.00 0.00 0.00 44 1012.8
20260830231527 93 160 2.0 8.0 0.00 0.00 0.00 43 1013.6
20260830230858 94 108 1.0 6.0 0.00 0.00 0.00 44 1012.7
20260830230035 93 126 2.0 7.0 0.00 0.00 0.00 44 1013.7
20260830224819 94 98 1.0 4.0 0.00 0.00 0.00 45 1013.0
20260830224525 93 132 2.0 6.0 0.00 0.00 0.00 43 1013.8
20260830223752 94 176 0.0 4.0 0.00 0.00 0.00 45 1013.0
20260830223018 93 115 1.0 3.0 0.00 0.00 0.00 43 1013.8
20260830221631 94 115 1.0 6.0 0.00 0.00 0.00 44 1013.1
20260830221527 94 125 2.0 8.0 0.00 0.00 0.00 45 1013.9
20260830220619 94 101 1.0 9.0 0.00 0.00 0.00 44 1013.1
20260830220014 93 102 3.0 8.0 0.00 0.00 0.00 43 1014.0
20260830215632 94 146 1.0 6.0 0.00 0.00 0.00 44 1013.2
20260830214622 94 117 1.0 4.0 0.00 0.00 0.00 45 1013.3
20260830214511 94 180 1.0 9.0 0.00 0.00 0.00 46 1014.0
20260830213609 94 148 0.0 7.0 0.00 0.00 0.00 46 1013.5
20260830213018 93 171 0.0 9.0 0.00 0.00 0.00 47 1014.2
20260830212606 94 221 1.0 9.0 0.00 0.00 0.00 47 1013.5
20260830211601 94 103 1.0 6.0 0.00 0.00 0.00 48 1013.6
20260830211532 93 148 2.0 7.0 0.00 0.00 0.00 47 1014.4
20260830210555 93 104 1.0 6.0 0.00 0.00 0.00 49 1013.9
20260830210032 93 157 2.0 8.0 0.00 0.00 0.00 48 1014.8
20260830205532 93 120 1.0 6.0 0.00 0.00 0.00 49 1014.0
20260830204536 92 123 2.0 9.0 0.00 0.00 0.00 49 1015.0
20260830204531 93 152 1.0 6.0 0.00 0.00 0.00 49 1014.2
20260830203529 93 146 0.0 5.0 0.00 0.00 0.00 49 1014.4
20260830203025 92 331 0.0 8.0 0.00 0.00 0.00 53 1015.2
20260830202510 91 133 1.0 6.0 0.00 0.00 0.00 51 1014.5
20260830201536 91 152 4.0 8.0 0.00 0.00 0.00 51 1015.5
20260830200437 94 77 1.0 7.0 0.00 0.00 0.00 52 1014.9
20260830200029 92 125 3.0 9.0 0.00 0.00 0.00 50 1015.8
20260830195417 92 180 0.0 4.0 0.00 0.00 0.00 51 1015.0
20260830194516 93 184 2.0 4.0 0.00 0.00 0.00 51 1016.0
20260830194427 93 103 0.0 3.0 0.00 0.00 0.00 52 1015.2
20260830193418 91 43 0.0 5.0 0.00 0.00 0.00 53 1015.4
20260830193011 91 138 1.0 4.0 0.00 0.00 0.00 53 1016.2
20260830192418 92 150 1.0 5.0 0.00 0.00 0.00 51 1015.6
20260830191529 92 175 1.0 7.0 0.00 0.00 0.00 52 1016.3
20260830191430 93 134 1.0 6.0 0.00 0.00 0.00 50 1015.7
20260830190455 93 137 1.0 6.0 0.00 0.00 0.00 50 1015.9
20260830190030 93 136 3.0 8.0 0.00 0.00 0.00 50 1016.6
20260830185502 92 219 1.0 6.0 0.00 0.00 0.00 53 1016.0
20260830184529 91 84 4.0 8.0 0.00 0.00 0.00 54 1016.8
20260830184505 92 80 0.0 6.0 0.00 0.00 0.00 54 1016.1
20260830183523 91 60 1.0 7.0 0.00 0.00 0.00 57 1016.3
20260830183029 92 180 1.0 9.0 0.00 0.00 0.00 54 1017.2
20260830182541 92 224 1.0 7.0 0.00 0.00 0.00 58 1016.5
20260830181527 90 150 1.0 7.0 0.00 0.00 0.00 55 1017.5
20260830180424 90 105 1.0 5.0 0.00 0.00 0.00 56 1016.9
20260830180021 90 166 2.0 7.0 0.00 0.00 0.00 56 1017.7
20260830174521 90 38 1.0 7.0 0.00 0.00 0.00 58 1017.9
20260830174240 91 139 1.0 5.0 0.00 0.00 0.00 55 1017.0
20260830173301 89 161 1.0 6.0 0.00 0.00 0.00 58 1017.2
20260830173016 89 159 3.0 8.0 0.00 0.00 0.00 57 1018.0
20260830172316 89 122 1.0 6.0 0.00 0.00 0.00 60 1017.3
20260830171534 92 228 0.0 3.0 0.00 0.00 0.00 59 1018.2
20260830170153 90 54 1.0 5.0 0.00 0.00 0.00 60 1017.6
20260830170039 88 101 2.0 7.0 0.00 0.00 0.00 60 1018.4
20260830165153 89 82 0.0 5.0 0.00 0.00 0.00 59 1017.7
20260830164546 89 305 1.0 4.0 0.00 0.00 0.00 63 1018.6
20260830164216 90 129 0.0 2.0 0.00 0.00 0.00 63 1017.7
20260830163233 88 266 0.0 2.0 0.00 0.00 0.00 65 1017.8
20260830163038 88 136 0.0 3.0 0.00 0.00 0.00 65 1018.6
20260830162239 89 276 0.0 4.0 0.00 0.00 0.00 66 1017.7
20260830161528 86 121 1.0 5.0 0.00 0.00 0.00 69 1018.5
20260830161209 86 296 0.0 3.0 0.00 0.00 0.00 72 1017.6
20260830160211 84 4 0.0 2.0 0.00 0.00 0.00 76 1017.8
20260830160027 83 117 0.0 2.0 0.00 0.00 0.00 74 1018.4
20260830155227 84 210 0.0 2.0 0.00 0.00 0.00 74 1017.8
20260830154532 83 273 0.0 3.0 0.00 0.00 0.00 74 1018.6
20260830154158 84 359 0.0 2.0 0.00 0.00 0.00 75 1017.7
20260830153128 83 105 0.0 1.0 0.00 0.00 0.00 76 1017.6
20260830153020 83 26 0.0 2.0 0.00 0.00 0.00 75 1018.5
20260830152139 84 326 0.0 3.0 0.00 0.00 0.00 77 1017.6
20260830151515 84 327 0.0 3.0 0.00 0.00 0.00 74 1018.4
20260830151108 85 324 0.0 3.0 0.00 0.00 0.00 74 1017.6
20260830150115 85 86 0.0 3.0 0.00 0.00 0.00 74 1017.6
20260830150017 84 264 2.0 4.0 0.00 0.00 0.00 72 1018.3
20260830145131 85 316 0.0 1.0 0.00 0.00 0.00 76 1017.6
20260830144512 83 328 0.0 3.0 0.00 0.00 0.00 76 1018.2
20260830144100 84 303 0.0 4.0 0.00 0.00 0.00 76 1017.5
20260830143118 83 319 0.0 4.0 0.00 0.00 0.00 77 1017.6
20260830143011 82 296 1.0 5.0 0.00 0.00 0.00 77 1018.3
20260830142053 82 157 0.0 3.0 0.00 0.00 0.00 80 1017.6
20260830141505 81 84 0.0 7.0 0.00 0.00 0.00 80 1018.3
20260830141116 81 107 0.0 2.0 0.00 0.00 0.00 81 1017.4
20260830140136 81 89 0.0 3.0 0.00 0.00 0.00 83 1017.4
20260830140003 80 153 1.0 4.0 0.00 0.00 0.00 82 1018.1
20260830135144 80 149 0.0 3.0 0.00 0.00 0.00 84 1017.5
20260830134526 79 149 0.0 4.0 0.00 0.00 0.00 86 1018.3
20260830134143 79 152 0.0 0.0 0.00 0.00 0.00 87 1017.4
20260830133146 78 76 0.0 4.0 0.00 0.00 0.00 88 1017.4
20260830133027 77 94 1.0 6.0 0.00 0.00 0.00 87 1018.2
20260830132119 77 105 0.0 0.0 0.00 0.00 0.00 90 1017.2
20260830131535 76 134 0.0 0.0 0.00 0.00 0.00 89 1018.1
20260830130017 75 128 0.0 4.0 0.00 0.00 0.00 90 1018.0
20260830125926 76 105 0.0 3.0 0.00 0.00 0.00 91 1017.1
20260830124922 76 77 0.0 0.0 0.00 0.00 0.00 91 1017.0
20260830124514 75 80 0.0 0.0 0.00 0.00 0.00 91 1017.7
20260830123013 74 80 0.0 0.0 0.00 0.00 0.00 90 1017.5
20260830122831 75 76 0.0 0.0 0.00 0.00 0.00 91 1016.8
20260830121850 75 76 0.0 0.0 0.00 0.00 0.00 91 1016.6
20260830121509 75 78 0.0 0.0 0.00 0.00 0.00 90 1017.5
20260830120828 75 74 0.0 0.0 0.00 0.00 0.00 90 1016.6
20260830120006 75 78 0.0 0.0 0.00 0.00 0.00 90 1017.4
20260830115802 75 74 0.0 0.0 0.00 0.00 0.00 90 1016.6
20260830114731 75 105 0.0 0.0 0.00 0.00 0.00 90 1016.6
20260830114530 75 101 0.0 2.0 0.00 0.00 0.00 89 1017.3
20260830113659 76 87 0.0 0.0 0.00 0.00 0.00 90 1016.5
20260830113029 75 278 0.0 2.0 0.00 0.00 0.00 89 1017.4
20260830111527 75 160 0.0 2.0 0.00 0.00 0.00 89 1017.4
20260830111450 76 107 0.0 0.0 0.00 0.00 0.00 89 1016.6
20260830110440 76 62 0.0 1.0 0.00 0.00 0.00 89 1016.5
20260830110028 75 143 0.0 2.0 0.00 0.00 0.00 89 1017.3
20260830105446 76 101 0.0 1.0 0.00 0.00 0.00 89 1016.4
20260830104518 75 105 0.0 2.0 0.00 0.00 0.00 89 1017.3
20260830104501 76 101 0.0 1.0 0.00 0.00 0.00 89 1016.3
20260830103025 75 113 0.0 0.0 0.00 0.00 0.00 89 1017.3
20260830102257 75 110 0.0 0.0 0.00 0.00 0.00 89 1016.5
20260830101513 75 113 0.0 0.0 0.00 0.00 0.00 88 1017.4
20260830101246 75 110 0.0 0.0 0.00 0.00 0.00 88 1016.5
20260830100304 75 110 0.0 0.0 0.00 0.00 0.00 88 1016.5
20260830100012 75 113 0.0 0.0 0.00 0.00 0.00 88 1017.3
20260830095313 75 110 0.0 0.0 0.00 0.00 0.00 89 1016.4
20260830094534 74 113 0.0 0.0 0.00 0.00 0.00 88 1017.3
20260830094245 75 110 0.0 0.0 0.00 0.00 0.00 88 1016.4
20260830093247 75 110 0.0 0.0 0.00 0.00 0.00 89 1016.4
20260830093032 74 113 0.0 0.0 0.00 0.00 0.00 88 1017.2
20260830092235 74 110 0.0 0.0 0.00 0.00 0.00 88 1016.4
20260830091534 74 113 0.0 0.0 0.00 0.00 0.00 87 1017.3
20260830091249 75 110 0.0 0.0 0.00 0.00 0.00 87 1016.5
20260830090313 75 110 0.0 0.0 0.00 0.00 0.00 86 1016.4
20260830090030 75 113 0.0 0.0 0.00 0.00 0.00 85 1017.3
20260830085310 76 110 0.0 0.0 0.00 0.00 0.00 85 1016.5
20260830084526 75 113 0.0 0.0 0.00 0.00 0.00 84 1017.2
20260830084310 76 110 0.0 0.0 0.00 0.00 0.00 85 1016.5
20260830083323 76 111 0.0 0.0 0.00 0.00 0.00 84 1016.3
20260830083022 76 114 0.0 0.0 0.00 0.00 0.00 83 1017.4
20260830082334 76 111 0.0 0.0 0.00 0.00 0.00 83 1016.5
20260830081519 76 114 0.0 0.0 0.00 0.00 0.00 83 1017.3
20260830081300 76 111 0.0 0.0 0.00 0.00 0.00 83 1016.5
20260830080229 77 107 0.0 0.0 0.00 0.00 0.00 81 1016.5
20260830080015 77 110 0.0 2.0 0.00 0.00 0.00 81 1017.4
20260830075239 77 68 0.0 0.0 0.00 0.00 0.00 81 1016.6
20260830074533 77 82 0.0 0.0 0.00 0.00 0.00 80 1017.5
20260830074221 77 127 0.0 0.0 0.00 0.00 0.00 81 1016.7
20260830073225 77 110 0.0 1.0 0.00 0.00 0.00 81 1016.8
20260830073040 76 128 0.0 2.0 0.00 0.00 0.00 80 1017.6
20260830072201 77 125 0.0 1.0 0.00 0.00 0.00 79 1016.9
20260830071537 77 128 0.0 2.0 0.00 0.00 0.00 78 1017.7
20260830071157 78 125 0.0 0.0 0.00 0.00 0.00 78 1016.9
20260830070210 78 104 0.0 3.0 0.00 0.00 0.00 78 1016.7
20260830070030 78 117 0.0 2.0 0.00 0.00 0.00 77 1017.7
20260830065152 79 111 0.0 0.0 0.00 0.00 0.00 76 1016.8
20260830064528 78 142 0.0 2.0 0.00 0.00 0.00 76 1017.7
20260830064207 79 93 0.0 0.0 0.00 0.00 0.00 76 1016.7
20260830063219 79 153 0.0 1.0 0.00 0.00 0.00 75 1016.7
20260830063025 79 151 0.0 2.0 0.00 0.00 0.00 75 1017.6
20260830062221 79 168 0.0 0.0 0.00 0.00 0.00 75 1016.8
20260830061524 79 159 0.0 3.0 0.00 0.00 0.00 74 1017.7
20260830060053 80 139 0.0 0.0 0.00 0.00 0.00 73 1016.7
20260830060019 79 130 0.0 2.0 0.00 0.00 0.00 72 1017.6
20260830055026 80 143 0.0 4.0 0.00 0.00 0.00 72 1016.6
20260830054517 80 125 0.0 4.0 0.00 0.00 0.00 71 1017.5
20260830054023 81 108 0.0 3.0 0.00 0.00 0.00 71 1016.6
20260830053034 81 111 0.0 3.0 0.00 0.00 0.00 70 1016.6
20260830053012 81 128 0.0 6.0 0.00 0.00 0.00 70 1017.3
20260830052035 82 185 0.0 2.0 0.00 0.00 0.00 69 1016.7
20260830051512 81 125 0.0 3.0 0.00 0.00 0.00 69 1017.5
20260830051054 82 191 0.0 4.0 0.00 0.00 0.00 69 1016.7